Time,TemperatureF,DewpointF,PressureIn,WindDirection,WindDirectionDegrees,WindSpeedMPH,WindSpeedGustMPH,Humidity,HourlyPrecipIn,Conditions,Clouds,dailyrainin,SolarRadiationWatts/m^2,SoftwareType,DateUTC
2013-09-10 00:01:00,68.9,68.0,30.05,North,-999,0.0,0.0,97,0.00,,,-99.99,0,WeatherLink 6.0.3,2013-09-10 04:01:00,
2013-09-10 00:03:00,68.9,68.0,30.05,SE,137,0.0,0.0,97,0.00,,,0.00,0,Wunderground v.1.15,2013-09-10 04:03:00,
2013-09-10 00:08:00,68.7,67.8,30.05,SE,137,0.0,0.0,97,0.00,,,0.00,0,Wunderground v.1.15,2013-09-10 04:08:00,
2013-09-10 00:12:00,68.6,67.7,30.06,SE,137,0.0,0.0,97,0.00,,,0.00,0,Wunderground v.1.15,2013-09-10 04:12:00,
2013-09-10 00:17:00,68.5,67.6,30.05,SE,137,0.0,0.0,97,0.00,,,0.00,0,Wunderground v.1.15,2013-09-10 04:17:00,
2013-09-10 00:23:00,68.3,67.4,30.06,SE,137,0.0,0.0,97,0.00,,,0.00,0,Wunderground v.1.15,2013-09-10 04:23:00,
2013-09-10 00:28:00,68.2,67.3,30.05,SE,137,0.0,0.0,97,0.00,,,0.00,0,Wunderground v.1.15,2013-09-10 04:28:00,
2013-09-10 00:34:00,68.1,67.2,30.06,SE,137,0.0,0.0,97,0.00,,,0.00,0,Wunderground v.1.15,2013-09-10 04:34:00,
2013-09-10 00:35:00,68.1,67.2,30.05,SE,137,0.0,0.0,97,0.00,,,0.00,0,Wunderground v.1.15,2013-09-10 04:35:00,
2013-09-10 00:40:00,68.1,67.2,30.05,SE,137,0.0,0.0,97,0.00,,,0.00,0,Wunderground v.1.15,2013-09-10 04:40:00,
2013-09-10 00:45:00,67.9,67.0,30.05,SE,137,0.0,0.0,97,0.00,,,0.00,0,Wunderground v.1.15,2013-09-10 04:45:00,
2013-09-10 00:50:00,67.7,66.8,30.05,SE,137,0.0,0.0,97,0.00,,,0.00,0,Wunderground v.1.15,2013-09-10 04:50:00,
2013-09-10 00:56:00,67.6,66.7,30.06,SE,137,0.0,0.0,97,0.00,,,0.00,0,Wunderground v.1.15,2013-09-10 04:56:00,
2013-09-10 01:01:00,67.4,66.5,30.06,SE,137,0.0,0.0,97,0.00,,,0.00,0,Wunderground v.1.15,2013-09-10 05:01:00,
2013-09-10 01:06:00,67.3,66.4,30.05,SE,137,0.0,0.0,97,0.00,,,0.00,0,Wunderground v.1.15,2013-09-10 05:06:00,
2013-09-10 01:11:00,67.2,66.3,30.06,SE,137,0.0,0.0,97,0.00,,,0.00,0,Wunderground v.1.15,2013-09-10 05:11:00,
2013-09-10 01:16:00,67.2,66.6,30.06,SE,137,0.0,0.0,98,0.00,,,0.00,0,Wunderground v.1.15,2013-09-10 05:16:00,
2013-09-10 01:22:00,67.1,66.2,30.06,SE,137,0.0,0.0,97,0.00,,,0.00,0,Wunderground v.1.15,2013-09-10 05:22:00,
2013-09-10 01:27:00,67.1,66.2,30.06,SE,137,0.0,0.0,97,0.00,,,0.00,0,Wunderground v.1.15,2013-09-10 05:27:00,
2013-09-10 01:32:00,67.1,66.5,30.06,SE,137,0.0,0.0,98,0.00,,,0.00,0,Wunderground v.1.15,2013-09-10 05:32:00,
2013-09-10 01:37:00,67.0,66.1,30.06,SE,137,0.0,0.0,97,0.00,,,0.00,0,Wunderground v.1.15,2013-09-10 05:37:00,
2013-09-10 01:43:00,66.8,65.9,30.05,SE,137,0.0,0.0,97,0.00,,,0.00,0,Wunderground v.1.15,2013-09-10 05:43:00,
2013-09-10 01:48:00,66.9,66.3,30.05,SE,137,0.0,0.0,98,0.00,,,0.00,0,Wunderground v.1.15,2013-09-10 05:48:00,
2013-09-10 01:53:00,66.7,66.1,30.05,SE,137,0.0,0.0,98,0.00,,,0.00,0,Wunderground v.1.15,2013-09-10 05:53:00,
2013-09-10 01:58:00,66.7,66.1,30.05,SE,137,0.0,0.0,98,0.00,,,0.00,0,Wunderground v.1.15,2013-09-10 05:58:00,
2013-09-10 02:04:00,66.6,66.0,30.05,SE,137,0.0,0.0,98,0.00,,,0.00,0,Wunderground v.1.15,2013-09-10 06:04:00,
2013-09-10 02:10:00,66.5,65.9,30.05,SE,137,0.0,0.0,98,0.00,,,0.00,0,Wunderground v.1.15,2013-09-10 06:10:00,
2013-09-10 02:16:00,66.4,65.5,30.05,SE,137,0.0,0.0,97,0.00,,,0.00,0,Wunderground v.1.15,2013-09-10 06:16:00,
2013-09-10 02:22:00,66.3,65.4,30.05,SE,137,0.0,0.0,97,0.00,,,0.00,0,Wunderground v.1.15,2013-09-10 06:22:00,
2013-09-10 02:28:00,66.2,65.3,30.05,SE,137,0.0,0.0,97,0.00,,,0.00,0,Wunderground v.1.15,2013-09-10 06:28:00,
2013-09-10 02:34:00,66.1,65.5,30.05,SE,137,0.0,0.0,98,0.00,,,0.00,0,Wunderground v.1.15,2013-09-10 06:34:00,
2013-09-10 02:39:00,66.0,65.4,30.05,SE,137,0.0,0.0,98,0.00,,,0.00,0,Wunderground v.1.15,2013-09-10 06:39:00,
2013-09-10 02:44:00,65.9,65.3,30.05,SE,137,0.0,0.0,98,0.00,,,0.00,0,Wunderground v.1.15,2013-09-10 06:44:00,
2013-09-10 02:50:00,65.9,65.3,30.05,SE,137,0.0,0.0,98,0.00,,,0.00,0,Wunderground v.1.15,2013-09-10 06:50:00,
2013-09-10 02:55:00,65.9,65.3,30.05,SE,137,0.0,0.0,98,0.00,,,0.00,0,Wunderground v.1.15,2013-09-10 06:55:00,
2013-09-10 03:00:00,66.0,65.4,30.05,SE,137,0.0,0.0,98,0.00,,,0.00,0,Wunderground v.1.15,2013-09-10 07:00:00,
2013-09-10 03:05:00,66.0,65.4,30.05,SE,137,0.0,0.0,98,0.00,,,0.00,0,Wunderground v.1.15,2013-09-10 07:05:00,
2013-09-10 03:10:00,65.9,65.3,30.05,SE,137,0.0,0.0,98,0.00,,,0.00,0,Wunderground v.1.15,2013-09-10 07:10:00,
2013-09-10 03:16:00,65.8,65.2,30.04,SE,137,0.0,0.0,98,0.00,,,0.00,0,Wunderground v.1.15,2013-09-10 07:16:00,
2013-09-10 03:21:00,65.8,65.2,30.04,SE,137,0.0,0.0,98,0.00,,,0.00,0,Wunderground v.1.15,2013-09-10 07:21:00,
2013-09-10 03:26:00,65.9,65.3,30.05,SE,137,0.0,0.0,98,0.00,,,0.00,0,Wunderground v.1.15,2013-09-10 07:26:00,
2013-09-10 03:31:00,65.9,65.3,30.05,SE,137,0.0,0.0,98,0.00,,,0.00,0,Wunderground v.1.15,2013-09-10 07:31:00,
2013-09-10 03:37:00,66.0,65.4,30.05,SE,137,0.0,0.0,98,0.00,,,0.00,0,Wunderground v.1.15,2013-09-10 07:37:00,
2013-09-10 03:42:00,66.0,65.4,30.05,SE,137,0.0,0.0,98,0.00,,,0.00,0,Wunderground v.1.15,2013-09-10 07:42:00,
2013-09-10 03:47:00,66.1,65.5,30.05,SE,137,0.0,0.0,98,0.00,,,0.00,0,Wunderground v.1.15,2013-09-10 07:47:00,
2013-09-10 03:52:00,66.1,65.5,30.05,SE,137,0.0,0.0,98,0.00,,,0.00,0,Wunderground v.1.15,2013-09-10 07:52:00,
2013-09-10 03:57:00,66.1,65.5,30.05,SE,137,0.0,0.0,98,0.00,,,0.00,0,Wunderground v.1.15,2013-09-10 07:57:00,
2013-09-10 04:03:00,66.1,65.5,30.05,SE,137,0.0,0.0,98,0.00,,,0.00,0,Wunderground v.1.15,2013-09-10 08:03:00,
2013-09-10 04:08:00,66.1,65.5,30.05,SE,137,0.0,0.0,98,0.00,,,0.00,0,Wunderground v.1.15,2013-09-10 08:08:00,
2013-09-10 04:13:00,65.9,65.3,30.06,SE,137,0.0,0.0,98,0.00,,,0.00,0,Wunderground v.1.15,2013-09-10 08:13:00,
2013-09-10 04:18:00,65.9,65.3,30.06,SE,137,0.0,0.0,98,0.00,,,0.00,0,Wunderground v.1.15,2013-09-10 08:18:00,
2013-09-10 04:23:00,65.8,65.2,30.06,SE,137,0.0,0.0,98,0.00,,,0.00,0,Wunderground v.1.15,2013-09-10 08:23:00,
2013-09-10 04:28:00,65.8,65.2,30.06,SE,137,0.0,0.0,98,0.00,,,0.00,0,Wunderground v.1.15,2013-09-10 08:28:00,
2013-09-10 04:33:00,65.8,65.2,30.06,SE,137,0.0,0.0,98,0.00,,,0.00,0,Wunderground v.1.15,2013-09-10 08:33:00,
2013-09-10 04:38:00,65.8,65.2,30.06,SE,137,0.0,0.0,98,0.00,,,0.00,0,Wunderground v.1.15,2013-09-10 08:38:00,
2013-09-10 04:43:00,65.8,65.2,30.06,SE,137,0.0,0.0,98,0.00,,,0.00,0,Wunderground v.1.15,2013-09-10 08:43:00,
2013-09-10 04:48:00,65.8,65.2,30.06,SE,137,0.0,0.0,98,0.00,,,0.00,0,Wunderground v.1.15,2013-09-10 08:48:00,
2013-09-10 04:53:00,65.8,65.2,30.06,SE,137,0.0,0.0,98,0.00,,,0.00,0,Wunderground v.1.15,2013-09-10 08:53:00,
2013-09-10 04:58:00,65.7,65.1,30.07,SE,137,0.0,0.0,98,0.00,,,0.00,0,Wunderground v.1.15,2013-09-10 08:58:00,
2013-09-10 05:04:00,65.8,65.2,30.07,SE,137,0.0,0.0,98,0.00,,,0.00,0,Wunderground v.1.15,2013-09-10 09:04:00,
2013-09-10 05:10:00,65.7,65.1,30.07,SE,137,0.0,0.0,98,0.00,,,0.00,0,Wunderground v.1.15,2013-09-10 09:10:00,
2013-09-10 05:16:00,65.7,65.1,30.07,SE,137,0.0,0.0,98,0.00,,,0.00,0,Wunderground v.1.15,2013-09-10 09:16:00,
2013-09-10 05:21:00,65.6,65.0,30.07,SE,137,0.0,0.0,98,0.00,,,0.00,0,Wunderground v.1.15,2013-09-10 09:21:00,
2013-09-10 05:26:00,65.7,65.1,30.07,SE,137,0.0,0.0,98,0.00,,,0.00,0,Wunderground v.1.15,2013-09-10 09:26:00,
2013-09-10 05:31:00,65.8,65.2,30.07,SE,137,0.0,0.0,98,0.00,,,0.00,0,Wunderground v.1.15,2013-09-10 09:31:00,
2013-09-10 05:37:00,65.7,65.1,30.08,SE,137,0.0,0.0,98,0.00,,,0.00,0,Wunderground v.1.15,2013-09-10 09:37:00,
2013-09-10 05:42:00,65.7,65.1,30.08,SE,137,0.0,0.0,98,0.00,,,0.00,0,Wunderground v.1.15,2013-09-10 09:42:00,
2013-09-10 05:47:00,65.6,65.0,30.08,SE,137,0.0,0.0,98,0.00,,,0.00,0,Wunderground v.1.15,2013-09-10 09:47:00,
2013-09-10 05:52:00,65.6,65.0,30.08,SE,137,0.0,0.0,98,0.00,,,0.00,0,Wunderground v.1.15,2013-09-10 09:52:00,
2013-09-10 05:57:00,65.8,65.2,30.08,SE,137,0.0,0.0,98,0.00,,,0.00,0,Wunderground v.1.15,2013-09-10 09:57:00,
2013-09-10 06:03:00,65.9,65.3,30.08,SE,137,0.0,0.0,98,0.00,,,0.00,0,Wunderground v.1.15,2013-09-10 10:03:00,
2013-09-10 06:08:00,66.0,65.4,30.09,SE,137,0.0,0.0,98,0.00,,,0.00,0,Wunderground v.1.15,2013-09-10 10:08:00,
2013-09-10 06:14:00,66.0,65.4,30.09,SE,137,0.0,0.0,98,0.00,,,0.00,0,Wunderground v.1.15,2013-09-10 10:14:00,
2013-09-10 06:19:00,65.9,65.3,30.08,SE,137,0.0,0.0,98,0.00,,,0.00,0,Wunderground v.1.15,2013-09-10 10:19:00,
2013-09-10 06:24:00,65.9,65.3,30.09,SE,137,0.0,0.0,98,0.00,,,0.00,0,Wunderground v.1.15,2013-09-10 10:24:00,
2013-09-10 06:29:00,65.9,65.3,30.09,SE,137,0.0,0.0,98,0.00,,,0.00,0,Wunderground v.1.15,2013-09-10 10:29:00,
2013-09-10 06:35:00,65.9,65.3,30.09,SE,137,0.0,0.0,98,0.00,,,0.00,0,Wunderground v.1.15,2013-09-10 10:35:00,
2013-09-10 06:40:00,65.9,65.3,30.09,SE,137,0.0,0.0,98,0.00,,,0.00,0,Wunderground v.1.15,2013-09-10 10:40:00,
2013-09-10 06:45:00,66.0,65.4,30.09,SE,137,0.0,0.0,98,0.00,,,0.00,0,Wunderground v.1.15,2013-09-10 10:45:00,
2013-09-10 06:50:00,66.0,65.4,30.09,SE,137,0.0,0.0,98,0.00,,,0.00,0,Wunderground v.1.15,2013-09-10 10:50:00,
2013-09-10 06:55:00,66.1,65.5,30.09,SE,137,0.0,0.0,98,0.00,,,0.00,0,Wunderground v.1.15,2013-09-10 10:55:00,
2013-09-10 07:01:00,66.3,66.0,30.09,North,-999,0.0,0.0,99,0.00,,,-99.99,0,WeatherLink 6.0.3,2013-09-10 11:01:00,
2013-09-10 07:06:00,66.3,65.7,30.10,SE,137,0.0,0.0,98,0.00,,,0.00,5,Wunderground v.1.15,2013-09-10 11:06:00,
2013-09-10 07:12:00,66.4,65.8,30.10,SE,137,0.0,0.0,98,0.00,,,0.00,7,Wunderground v.1.15,2013-09-10 11:12:00,
2013-09-10 07:17:00,66.5,65.9,30.09,SE,137,0.0,0.0,98,0.00,,,0.00,11,Wunderground v.1.15,2013-09-10 11:17:00,
2013-09-10 07:22:00,66.5,65.9,30.09,SE,137,0.0,0.0,98,0.00,,,0.00,12,Wunderground v.1.15,2013-09-10 11:22:00,
2013-09-10 07:27:00,66.7,66.4,30.09,SE,137,0.0,0.0,99,0.00,,,0.00,14,Wunderground v.1.15,2013-09-10 11:27:00,
2013-09-10 07:32:00,66.8,66.5,30.09,SE,137,0.0,0.0,99,0.00,,,0.00,16,Wunderground v.1.15,2013-09-10 11:32:00,
2013-09-10 07:37:00,66.9,66.6,30.09,SE,137,0.0,0.0,99,0.00,,,0.00,18,Wunderground v.1.15,2013-09-10 11:37:00,
2013-09-10 07:42:00,67.2,66.9,30.09,SE,137,0.0,0.0,99,0.00,,,0.00,19,Wunderground v.1.15,2013-09-10 11:42:00,
2013-09-10 07:47:00,67.4,67.1,30.09,SE,137,0.0,0.0,99,0.00,,,0.00,23,Wunderground v.1.15,2013-09-10 11:47:00,
2013-09-10 07:52:00,67.6,67.3,30.09,SE,137,0.0,0.0,99,0.00,,,0.00,30,Wunderground v.1.15,2013-09-10 11:52:00,
2013-09-10 07:57:00,67.7,67.4,30.09,SE,137,0.0,0.0,99,0.00,,,0.00,40,Wunderground v.1.15,2013-09-10 11:57:00,
2013-09-10 08:03:00,68.1,67.8,30.09,SE,137,0.0,0.0,99,0.00,,,0.00,56,Wunderground v.1.15,2013-09-10 12:03:00,
2013-09-10 08:08:00,68.5,68.2,30.10,SE,137,0.0,0.0,99,0.00,,,0.00,77,Wunderground v.1.15,2013-09-10 12:08:00,
2013-09-10 08:13:00,69.0,68.7,30.10,SE,137,0.0,0.0,99,0.00,,,0.00,62,Wunderground v.1.15,2013-09-10 12:13:00,
2013-09-10 08:18:00,69.4,69.1,30.10,SE,137,0.0,0.0,99,0.00,,,0.00,46,Wunderground v.1.15,2013-09-10 12:18:00,
2013-09-10 08:24:00,69.6,69.3,30.10,SE,137,0.0,0.0,99,0.00,,,0.00,69,Wunderground v.1.15,2013-09-10 12:24:00,
2013-09-10 08:29:00,69.8,69.5,30.10,SE,137,0.0,0.0,99,0.00,,,0.00,95,Wunderground v.1.15,2013-09-10 12:29:00,
2013-09-10 08:34:00,70.0,69.7,30.10,SE,137,0.0,0.0,99,0.00,,,0.00,91,Wunderground v.1.15,2013-09-10 12:34:00,
2013-09-10 08:39:00,70.1,69.8,30.10,SE,137,0.0,0.0,99,0.00,,,0.00,90,Wunderground v.1.15,2013-09-10 12:39:00,
2013-09-10 08:44:00,70.3,70.0,30.10,SE,137,0.0,0.0,99,0.00,,,0.00,86,Wunderground v.1.15,2013-09-10 12:44:00,
2013-09-10 08:49:00,70.4,70.1,30.10,SE,138,0.0,0.0,99,0.00,,,0.00,83,Wunderground v.1.15,2013-09-10 12:49:00,
2013-09-10 08:54:00,70.5,70.2,30.10,SE,138,0.0,0.0,99,0.00,,,0.00,44,Wunderground v.1.15,2013-09-10 12:54:00,
2013-09-10 08:59:00,70.6,70.3,30.10,SE,138,0.0,0.0,99,0.00,,,0.00,40,Wunderground v.1.15,2013-09-10 12:59:00,
2013-09-10 09:05:00,70.6,70.3,30.11,SE,138,0.0,0.0,99,0.00,,,0.00,72,Wunderground v.1.15,2013-09-10 13:05:00,
2013-09-10 09:10:00,70.6,70.3,30.11,SE,138,0.0,0.0,99,0.00,,,0.00,70,Wunderground v.1.15,2013-09-10 13:10:00,
2013-09-10 09:16:00,70.7,70.4,30.11,SE,138,0.0,0.0,99,0.00,,,0.00,46,Wunderground v.1.15,2013-09-10 13:16:00,
2013-09-10 09:21:00,70.8,70.5,30.11,SE,138,0.0,0.0,99,0.00,,,0.00,54,Wunderground v.1.15,2013-09-10 13:21:00,
2013-09-10 09:26:00,70.9,70.6,30.11,SE,138,0.0,0.0,99,0.00,,,0.00,54,Wunderground v.1.15,2013-09-10 13:26:00,
2013-09-10 09:31:00,70.9,70.6,30.11,SE,138,0.0,0.0,99,0.00,,,0.00,69,Wunderground v.1.15,2013-09-10 13:31:00,
2013-09-10 09:36:00,71.0,70.7,30.11,SE,138,0.0,0.0,99,0.00,,,0.00,118,Wunderground v.1.15,2013-09-10 13:36:00,
2013-09-10 09:41:00,71.2,70.9,30.11,SE,138,0.0,0.0,99,0.00,,,0.00,130,Wunderground v.1.15,2013-09-10 13:41:00,
2013-09-10 09:46:00,71.5,71.2,30.11,SE,138,0.0,0.0,99,0.00,,,0.00,132,Wunderground v.1.15,2013-09-10 13:46:00,
2013-09-10 09:51:00,72.0,71.7,30.12,SE,138,0.0,0.0,99,0.00,,,0.00,160,Wunderground v.1.15,2013-09-10 13:51:00,
2013-09-10 09:56:00,72.7,72.4,30.12,SE,138,0.0,0.0,99,0.00,,,0.00,137,Wunderground v.1.15,2013-09-10 13:56:00,
2013-09-10 10:01:00,73.2,72.9,30.12,SE,140,0.0,0.0,99,0.00,,,0.00,149,Wunderground v.1.15,2013-09-10 14:01:00,
2013-09-10 10:06:00,73.6,73.3,30.12,SW,229,0.0,2.0,99,0.00,,,0.00,155,Wunderground v.1.15,2013-09-10 14:06:00,
2013-09-10 10:12:00,74.2,73.9,30.12,East,97,0.0,0.0,99,0.00,,,0.00,171,Wunderground v.1.15,2013-09-10 14:12:00,
2013-09-10 10:17:00,74.7,74.4,30.12,West,267,0.0,1.0,99,0.00,,,0.00,188,Wunderground v.1.15,2013-09-10 14:17:00,
2013-09-10 10:22:00,75.1,74.5,30.12,West,269,0.0,0.0,98,0.00,,,0.00,216,Wunderground v.1.15,2013-09-10 14:22:00,
2013-09-10 10:27:00,75.8,74.6,30.12,NNE,14,0.0,1.0,96,0.00,,,0.00,265,Wunderground v.1.15,2013-09-10 14:27:00,
2013-09-10 10:32:00,76.5,74.6,30.12,SW,233,0.0,0.0,94,0.00,,,0.00,265,Wunderground v.1.15,2013-09-10 14:32:00,
2013-09-10 10:37:00,77.2,74.7,30.12,WSW,249,0.0,0.0,92,0.00,,,0.00,283,Wunderground v.1.15,2013-09-10 14:37:00,
2013-09-10 10:42:00,77.8,75.0,30.12,West,273,0.0,0.0,91,0.00,,,0.00,313,Wunderground v.1.15,2013-09-10 14:42:00,
2013-09-10 10:47:00,78.3,74.8,30.12,NNW,339,0.0,0.0,89,0.00,,,0.00,336,Wunderground v.1.15,2013-09-10 14:47:00,
2013-09-10 10:53:00,79.0,75.8,30.12,NW,313,0.0,0.0,90,0.00,,,0.00,350,Wunderground v.1.15,2013-09-10 14:53:00,
2013-09-10 10:58:00,79.4,75.5,30.11,South,184,0.0,0.0,88,0.00,,,0.00,336,Wunderground v.1.15,2013-09-10 14:58:00,
2013-09-10 11:04:00,80.0,75.4,30.11,SSW,205,0.0,1.0,86,0.00,,,0.00,371,Wunderground v.1.15,2013-09-10 15:04:00,
2013-09-10 11:09:00,80.2,75.3,30.11,SW,224,0.0,1.0,85,0.00,,,0.00,362,Wunderground v.1.15,2013-09-10 15:09:00,
2013-09-10 11:14:00,80.7,75.8,30.11,SW,222,0.0,2.0,85,0.00,,,0.00,350,Wunderground v.1.15,2013-09-10 15:14:00,
2013-09-10 11:19:00,81.2,76.3,30.11,SW,222,0.0,2.0,85,0.00,,,0.00,346,Wunderground v.1.15,2013-09-10 15:19:00,
2013-09-10 11:24:00,81.6,76.3,30.11,SW,222,0.0,0.0,84,0.00,,,0.00,348,Wunderground v.1.15,2013-09-10 15:24:00,
2013-09-10 11:29:00,82.1,76.8,30.11,SW,222,0.0,1.0,84,0.00,,,0.00,366,Wunderground v.1.15,2013-09-10 15:29:00,
2013-09-10 11:34:00,82.6,77.6,30.11,West,262,0.0,0.0,85,0.00,,,0.00,394,Wunderground v.1.15,2013-09-10 15:34:00,
2013-09-10 11:39:00,83.0,76.9,30.11,WSW,257,0.0,1.0,82,0.00,,,0.00,415,Wunderground v.1.15,2013-09-10 15:39:00,
2013-09-10 11:44:00,83.4,77.3,30.11,WSW,257,0.0,0.0,82,0.00,,,0.00,459,Wunderground v.1.15,2013-09-10 15:44:00,
2013-09-10 11:49:00,83.7,77.2,30.11,WNW,286,0.0,2.0,81,0.00,,,0.00,506,Wunderground v.1.15,2013-09-10 15:49:00,
2013-09-10 11:54:00,83.9,77.1,30.11,South,178,0.0,1.0,80,0.00,,,0.00,527,Wunderground v.1.15,2013-09-10 15:54:00,
2013-09-10 11:59:00,84.1,77.3,30.10,South,175,0.0,1.0,80,0.00,,,0.00,547,Wunderground v.1.15,2013-09-10 15:59:00,
2013-09-10 12:04:00,84.3,77.8,30.10,NNW,337,0.0,5.0,81,0.00,,,0.00,584,Wunderground v.1.15,2013-09-10 16:04:00,
2013-09-10 12:09:00,84.3,77.8,30.10,West,271,0.0,5.0,81,0.00,,,0.00,594,Wunderground v.1.15,2013-09-10 16:09:00,
2013-09-10 12:15:00,84.5,77.3,30.10,WSW,257,0.0,0.0,79,0.00,,,0.00,598,Wunderground v.1.15,2013-09-10 16:15:00,
2013-09-10 12:20:00,84.8,77.6,30.10,SSW,210,0.0,1.0,79,0.00,,,0.00,613,Wunderground v.1.15,2013-09-10 16:20:00,
2013-09-10 12:25:00,84.8,77.6,30.10,SW,223,0.0,1.0,79,0.00,,,0.00,612,Wunderground v.1.15,2013-09-10 16:25:00,
2013-09-10 12:30:00,84.7,78.2,30.09,WSW,240,1.0,1.0,81,0.00,,,0.00,626,Wunderground v.1.15,2013-09-10 16:30:00,
2013-09-10 12:35:00,85.0,78.5,30.09,WSW,240,0.0,1.0,81,0.00,,,0.00,633,Wunderground v.1.15,2013-09-10 16:35:00,
2013-09-10 12:41:00,85.0,77.8,30.09,SW,226,1.0,1.0,79,0.00,,,0.00,633,Wunderground v.1.15,2013-09-10 16:41:00,
2013-09-10 12:46:00,85.1,78.2,30.09,West,273,1.0,1.0,80,0.00,,,0.00,652,Wunderground v.1.15,2013-09-10 16:46:00,
2013-09-10 12:51:00,85.1,77.5,30.09,SSW,205,0.0,2.0,78,0.00,,,0.00,659,Wunderground v.1.15,2013-09-10 16:51:00,
2013-09-10 12:56:00,85.3,77.7,30.09,North,355,0.0,2.0,78,0.00,,,0.00,652,Wunderground v.1.15,2013-09-10 16:56:00,
2013-09-10 13:02:00,85.7,78.8,30.09,NE,41,0.0,0.0,80,0.00,,,0.00,638,Wunderground v.1.15,2013-09-10 17:02:00,
2013-09-10 13:07:00,86.2,78.9,30.09,WSW,240,0.0,3.0,79,0.00,,,0.00,682,Wunderground v.1.15,2013-09-10 17:07:00,
2013-09-10 13:12:00,86.2,79.3,30.09,WSW,242,0.0,0.0,80,0.00,,,0.00,664,Wunderground v.1.15,2013-09-10 17:12:00,
2013-09-10 13:18:00,86.3,78.2,30.09,South,188,1.0,3.0,77,0.00,,,0.00,663,Wunderground v.1.15,2013-09-10 17:18:00,
2013-09-10 13:23:00,86.1,78.0,30.09,WSW,240,1.0,1.0,77,0.00,,,0.00,694,Wunderground v.1.15,2013-09-10 17:23:00,
2013-09-10 13:28:00,86.2,78.1,30.09,SW,232,1.0,2.0,77,0.00,,,0.00,687,Wunderground v.1.15,2013-09-10 17:28:00,
2013-09-10 13:34:00,86.3,78.2,30.09,SW,236,1.0,2.0,77,0.00,,,0.00,708,Wunderground v.1.15,2013-09-10 17:34:00,
2013-09-10 13:39:00,86.6,78.9,30.08,SSW,210,0.0,2.0,78,0.00,,,0.00,691,Wunderground v.1.15,2013-09-10 17:39:00,
2013-09-10 13:44:00,86.7,79.0,30.09,SW,236,1.0,1.0,78,0.00,,,0.00,691,Wunderground v.1.15,2013-09-10 17:44:00,
2013-09-10 13:49:00,86.8,79.5,30.09,SSW,198,1.0,1.0,79,0.00,,,0.00,696,Wunderground v.1.15,2013-09-10 17:49:00,
2013-09-10 13:54:00,86.8,78.3,30.09,SW,215,1.0,1.0,76,0.00,,,0.00,689,Wunderground v.1.15,2013-09-10 17:54:00,
2013-09-10 13:59:00,87.0,78.5,30.09,South,191,0.0,2.0,76,0.00,,,0.00,684,Wunderground v.1.15,2013-09-10 17:59:00,
2013-09-10 14:04:00,87.0,78.9,30.09,SSW,202,0.0,3.0,77,0.00,,,0.00,668,Wunderground v.1.15,2013-09-10 18:04:00,
2013-09-10 14:09:00,87.1,79.0,30.09,SSE,153,0.0,3.0,77,0.00,,,0.00,687,Wunderground v.1.15,2013-09-10 18:09:00,
2013-09-10 14:14:00,87.2,79.1,30.08,SSE,166,0.0,1.0,77,0.00,,,0.00,684,Wunderground v.1.15,2013-09-10 18:14:00,
2013-09-10 14:19:00,87.4,79.7,30.08,SSE,166,0.0,1.0,78,0.00,,,0.00,677,Wunderground v.1.15,2013-09-10 18:19:00,
2013-09-10 14:24:00,87.6,78.7,30.08,South,170,0.0,1.0,75,0.00,,,0.00,675,Wunderground v.1.15,2013-09-10 18:24:00,
2013-09-10 14:30:00,87.6,79.1,30.08,WSW,238,0.0,0.0,76,0.00,,,0.00,666,Wunderground v.1.15,2013-09-10 18:30:00,
2013-09-10 14:35:00,87.7,79.6,30.08,WNW,303,1.0,1.0,77,0.00,,,0.00,657,Wunderground v.1.15,2013-09-10 18:35:00,
2013-09-10 14:41:00,87.5,78.6,30.07,SW,215,1.0,2.0,75,0.00,,,0.00,643,Wunderground v.1.15,2013-09-10 18:41:00,
2013-09-10 14:46:00,87.3,78.8,30.07,SSW,204,1.0,3.0,76,0.00,,,0.00,670,Wunderground v.1.15,2013-09-10 18:46:00,
2013-09-10 14:51:00,87.2,78.7,30.08,SW,219,1.0,1.0,76,0.00,,,0.00,626,Wunderground v.1.15,2013-09-10 18:51:00,
2013-09-10 14:56:00,87.2,78.7,30.07,SW,223,0.0,1.0,76,0.00,,,0.00,656,Wunderground v.1.15,2013-09-10 18:56:00,
2013-09-10 15:01:00,87.2,79.1,30.07,SSW,210,0.0,1.0,77,0.00,,,0.00,652,Wunderground v.1.15,2013-09-10 19:01:00,
2013-09-10 15:06:00,87.3,78.8,30.07,WSW,250,0.0,1.0,76,0.00,,,0.00,636,Wunderground v.1.15,2013-09-10 19:06:00,
2013-09-10 15:11:00,87.5,79.0,30.07,SW,227,0.0,0.0,76,0.00,,,0.00,624,Wunderground v.1.15,2013-09-10 19:11:00,
2013-09-10 15:16:00,87.6,79.1,30.07,SW,227,0.0,1.0,76,0.00,,,0.00,638,Wunderground v.1.15,2013-09-10 19:16:00,
2013-09-10 15:21:00,87.7,79.2,30.07,SW,223,0.0,3.0,76,0.00,,,0.00,628,Wunderground v.1.15,2013-09-10 19:21:00,
2013-09-10 15:26:00,87.7,79.2,30.07,SW,223,0.0,3.0,76,0.00,,,0.00,626,Wunderground v.1.15,2013-09-10 19:26:00,
2013-09-10 15:31:00,87.6,78.7,30.06,SW,223,0.0,2.0,75,0.00,,,0.00,603,Wunderground v.1.15,2013-09-10 19:31:00,
2013-09-10 15:36:00,87.5,79.8,30.06,SW,223,0.0,2.0,78,0.00,,,0.00,603,Wunderground v.1.15,2013-09-10 19:36:00,
2013-09-10 15:41:00,87.5,78.6,30.06,SSW,207,0.0,1.0,75,0.00,,,0.00,547,Wunderground v.1.15,2013-09-10 19:41:00,
2013-09-10 15:46:00,87.4,79.7,30.06,ESE,122,1.0,1.0,78,0.00,,,0.00,605,Wunderground v.1.15,2013-09-10 19:46:00,
2013-09-10 15:51:00,87.3,79.6,30.06,SE,129,0.0,1.0,78,0.00,,,0.00,578,Wunderground v.1.15,2013-09-10 19:51:00,
2013-09-10 15:56:00,87.4,79.3,30.06,SSE,160,0.0,1.0,77,0.00,,,0.00,563,Wunderground v.1.15,2013-09-10 19:56:00,
2013-09-10 16:02:00,87.4,80.1,30.06,South,185,0.0,0.0,79,0.00,,,0.00,548,Wunderground v.1.15,2013-09-10 20:02:00,
2013-09-10 16:07:00,87.7,80.8,30.06,South,185,0.0,0.0,80,0.00,,,0.00,548,Wunderground v.1.15,2013-09-10 20:07:00,
2013-09-10 16:12:00,87.9,78.6,30.06,WSW,258,0.0,1.0,74,0.00,,,0.00,557,Wunderground v.1.15,2013-09-10 20:12:00,
2013-09-10 16:18:00,88.1,80.0,30.06,WNW,292,0.0,1.0,77,0.00,,,0.00,538,Wunderground v.1.15,2013-09-10 20:18:00,
2013-09-10 16:23:00,88.1,79.6,30.06,WNW,298,0.0,0.0,76,0.00,,,0.00,510,Wunderground v.1.15,2013-09-10 20:23:00,
2013-09-10 16:28:00,88.1,79.2,30.06,SW,229,0.0,1.0,75,0.00,,,0.00,457,Wunderground v.1.15,2013-09-10 20:28:00,
2013-09-10 16:33:00,87.9,79.8,30.06,WSW,240,0.0,1.0,77,0.00,,,0.00,487,Wunderground v.1.15,2013-09-10 20:33:00,
2013-09-10 16:38:00,87.9,79.8,30.06,WSW,240,0.0,1.0,77,0.00,,,0.00,485,Wunderground v.1.15,2013-09-10 20:38:00,
2013-09-10 16:43:00,87.8,80.1,30.06,WSW,254,0.0,0.0,78,0.00,,,0.00,466,Wunderground v.1.15,2013-09-10 20:43:00,
2013-09-10 16:48:00,87.8,79.7,30.05,WSW,254,0.0,0.0,77,0.00,,,0.00,446,Wunderground v.1.15,2013-09-10 20:48:00,
2013-09-10 16:53:00,87.7,78.4,30.05,WSW,253,0.0,1.0,74,0.00,,,0.00,418,Wunderground v.1.15,2013-09-10 20:53:00,
2013-09-10 16:58:00,87.5,78.6,30.06,WSW,253,0.0,1.0,75,0.00,,,0.00,399,Wunderground v.1.15,2013-09-10 20:58:00,
2013-09-10 17:03:00,87.1,79.0,30.06,SW,226,0.0,1.0,77,0.00,,,0.00,404,Wunderground v.1.15,2013-09-10 21:03:00,
2013-09-10 17:08:00,87.0,79.3,30.05,SW,227,0.0,1.0,78,0.00,,,0.00,388,Wunderground v.1.15,2013-09-10 21:08:00,
2013-09-10 17:14:00,87.0,79.3,30.05,SW,227,0.0,0.0,78,0.00,,,0.00,216,Wunderground v.1.15,2013-09-10 21:14:00,
2013-09-10 17:19:00,86.9,79.6,30.05,WSW,241,0.0,2.0,79,0.00,,,0.00,107,Wunderground v.1.15,2013-09-10 21:19:00,
2013-09-10 17:24:00,86.6,78.9,30.05,ESE,116,0.0,1.0,78,0.00,,,0.00,163,Wunderground v.1.15,2013-09-10 21:24:00,
2013-09-10 17:29:00,86.3,79.0,30.06,SSW,192,0.0,2.0,79,0.00,,,0.00,188,Wunderground v.1.15,2013-09-10 21:29:00,
2013-09-10 17:34:00,86.1,79.2,30.06,SSW,192,0.0,0.0,80,0.00,,,0.00,141,Wunderground v.1.15,2013-09-10 21:34:00,
2013-09-10 17:39:00,85.9,79.0,30.06,SSW,192,0.0,0.0,80,0.00,,,0.00,109,Wunderground v.1.15,2013-09-10 21:39:00,
2013-09-10 17:45:00,85.7,79.2,30.05,ESE,111,0.0,0.0,81,0.00,,,0.00,107,Wunderground v.1.15,2013-09-10 21:45:00,
2013-09-10 17:50:00,85.6,79.1,30.06,ESE,111,0.0,0.0,81,0.00,,,0.00,149,Wunderground v.1.15,2013-09-10 21:50:00,
2013-09-10 17:55:00,85.5,79.0,30.06,ESE,111,0.0,0.0,81,0.00,,,0.00,142,Wunderground v.1.15,2013-09-10 21:55:00,
2013-09-10 18:01:00,85.4,79.3,30.05,SSW,202,0.0,1.0,82,0.00,,,-99.99,148,WeatherLink 6.0.3,2013-09-10 22:01:00,
2013-09-10 18:06:00,85.3,79.2,30.05,ESE,116,0.0,0.0,82,0.00,,,0.00,102,Wunderground v.1.15,2013-09-10 22:06:00,
2013-09-10 18:11:00,85.0,78.5,30.05,ESE,117,0.0,0.0,81,0.00,,,0.00,60,Wunderground v.1.15,2013-09-10 22:11:00,
2013-09-10 18:16:00,84.8,78.7,30.05,ESE,117,0.0,0.0,82,0.00,,,0.00,58,Wunderground v.1.15,2013-09-10 22:16:00,
2013-09-10 18:21:00,84.6,78.5,30.05,ESE,117,0.0,0.0,82,0.00,,,0.00,56,Wunderground v.1.15,2013-09-10 22:21:00,
2013-09-10 18:26:00,84.3,78.2,30.06,ESE,117,0.0,0.0,82,0.00,,,0.00,51,Wunderground v.1.15,2013-09-10 22:26:00,
2013-09-10 18:31:00,84.1,78.0,30.05,ESE,117,0.0,0.0,82,0.00,,,0.00,47,Wunderground v.1.15,2013-09-10 22:31:00,
2013-09-10 18:37:00,83.8,78.1,30.06,ESE,117,0.0,0.0,83,0.00,,,0.00,44,Wunderground v.1.15,2013-09-10 22:37:00,
2013-09-10 18:42:00,83.6,77.9,30.06,ESE,117,0.0,0.0,83,0.00,,,0.00,40,Wunderground v.1.15,2013-09-10 22:42:00,
2013-09-10 18:47:00,83.3,78.0,30.06,ESE,117,0.0,0.0,84,0.00,,,0.00,37,Wunderground v.1.15,2013-09-10 22:47:00,
2013-09-10 18:52:00,83.0,77.7,30.06,ESE,117,0.0,0.0,84,0.00,,,0.00,33,Wunderground v.1.15,2013-09-10 22:52:00,
2013-09-10 18:57:00,82.8,77.5,30.06,ESE,117,0.0,0.0,84,0.00,,,0.00,30,Wunderground v.1.15,2013-09-10 22:57:00,
2013-09-10 19:03:00,82.4,77.4,30.06,ESE,117,0.0,0.0,85,0.00,,,0.00,25,Wunderground v.1.15,2013-09-10 23:03:00,
2013-09-10 19:08:00,82.1,77.1,30.06,ESE,117,0.0,0.0,85,0.00,,,0.00,21,Wunderground v.1.15,2013-09-10 23:08:00,
2013-09-10 19:13:00,81.8,76.8,30.06,ESE,117,0.0,0.0,85,0.00,,,0.00,18,Wunderground v.1.15,2013-09-10 23:13:00,
2013-09-10 19:18:00,81.5,76.9,30.06,ESE,117,0.0,0.0,86,0.00,,,0.00,14,Wunderground v.1.15,2013-09-10 23:18:00,
2013-09-10 19:23:00,81.2,76.6,30.06,ESE,117,0.0,0.0,86,0.00,,,0.00,9,Wunderground v.1.15,2013-09-10 23:23:00,
2013-09-10 19:28:00,80.9,76.3,30.06,ESE,117,0.0,0.0,86,0.00,,,0.00,7,Wunderground v.1.15,2013-09-10 23:28:00,
2013-09-10 19:33:00,80.5,76.3,30.06,ESE,117,0.0,0.0,87,0.00,,,0.00,0,Wunderground v.1.15,2013-09-10 23:33:00,
2013-09-10 19:38:00,80.2,76.3,30.07,ESE,117,0.0,0.0,88,0.00,,,0.00,0,Wunderground v.1.15,2013-09-10 23:38:00,
2013-09-10 19:43:00,79.9,76.4,30.07,ESE,117,0.0,0.0,89,0.00,,,0.00,0,Wunderground v.1.15,2013-09-10 23:43:00,
2013-09-10 19:48:00,79.4,75.9,30.07,ESE,117,0.0,0.0,89,0.00,,,0.00,0,Wunderground v.1.15,2013-09-10 23:48:00,
2013-09-10 19:53:00,79.1,75.9,30.07,ESE,117,0.0,0.0,90,0.00,,,0.00,0,Wunderground v.1.15,2013-09-10 23:53:00,
2013-09-10 19:58:00,78.7,75.5,30.07,ESE,117,0.0,0.0,90,0.00,,,0.00,0,Wunderground v.1.15,2013-09-10 23:58:00,
2013-09-10 20:03:00,78.3,75.5,30.07,ESE,117,0.0,0.0,91,0.00,,,0.00,0,Wunderground v.1.15,2013-09-11 00:03:00,
2013-09-10 20:09:00,77.9,75.1,30.08,ESE,117,0.0,0.0,91,0.00,,,0.00,0,Wunderground v.1.15,2013-09-11 00:09:00,
2013-09-10 20:14:00,77.7,75.2,30.08,ESE,117,0.0,0.0,92,0.00,,,0.00,0,Wunderground v.1.15,2013-09-11 00:14:00,
2013-09-10 20:19:00,77.4,74.9,30.08,ESE,117,0.0,0.0,92,0.00,,,0.00,0,Wunderground v.1.15,2013-09-11 00:19:00,
2013-09-10 20:24:00,77.1,74.6,30.09,ESE,117,0.0,0.0,92,0.00,,,0.00,0,Wunderground v.1.15,2013-09-11 00:24:00,
2013-09-10 20:30:00,76.9,74.7,30.09,ESE,117,0.0,0.0,93,0.00,,,0.00,0,Wunderground v.1.15,2013-09-11 00:30:00,
2013-09-10 20:35:00,76.6,74.4,30.09,ESE,117,0.0,0.0,93,0.00,,,0.00,0,Wunderground v.1.15,2013-09-11 00:35:00,
2013-09-10 20:40:00,76.4,74.2,30.09,ESE,117,0.0,0.0,93,0.00,,,0.00,0,Wunderground v.1.15,2013-09-11 00:40:00,
2013-09-10 20:45:00,76.2,74.3,30.09,ESE,117,0.0,0.0,94,0.00,,,0.00,0,Wunderground v.1.15,2013-09-11 00:45:00,
2013-09-10 20:50:00,76.0,74.1,30.10,ESE,117,0.0,0.0,94,0.00,,,0.00,0,Wunderground v.1.15,2013-09-11 00:50:00,
2013-09-10 20:55:00,75.8,73.9,30.10,ESE,117,0.0,0.0,94,0.00,,,0.00,0,Wunderground v.1.15,2013-09-11 00:55:00,
2013-09-10 21:01:00,75.6,74.1,30.10,North,-999,0.0,0.0,95,0.00,,,-99.99,0,WeatherLink 6.0.3,2013-09-11 01:01:00,
2013-09-10 21:06:00,75.5,74.0,30.10,ESE,117,0.0,0.0,95,0.00,,,0.00,0,Wunderground v.1.15,2013-09-11 01:06:00,
2013-09-10 21:11:00,75.4,73.9,30.10,ESE,117,0.0,0.0,95,0.00,,,0.00,0,Wunderground v.1.15,2013-09-11 01:11:00,
2013-09-10 21:17:00,75.3,73.8,30.10,ESE,117,0.0,0.0,95,0.00,,,0.00,0,Wunderground v.1.15,2013-09-11 01:17:00,
2013-09-10 21:22:00,75.2,73.7,30.11,ESE,117,0.0,0.0,95,0.00,,,0.00,0,Wunderground v.1.15,2013-09-11 01:22:00,
2013-09-10 21:27:00,75.1,73.6,30.11,ESE,117,0.0,0.0,95,0.00,,,0.00,0,Wunderground v.1.15,2013-09-11 01:27:00,
2013-09-10 21:32:00,75.0,73.8,30.11,ESE,117,0.0,0.0,96,0.00,,,0.00,0,Wunderground v.1.15,2013-09-11 01:32:00,
2013-09-10 21:37:00,74.8,73.3,30.11,ESE,117,0.0,0.0,95,0.00,,,0.00,0,Wunderground v.1.15,2013-09-11 01:37:00,
2013-09-10 21:42:00,74.7,73.2,30.11,ESE,117,0.0,0.0,95,0.00,,,0.00,0,Wunderground v.1.15,2013-09-11 01:42:00,
2013-09-10 21:47:00,74.6,73.4,30.11,ESE,117,0.0,0.0,96,0.00,,,0.00,0,Wunderground v.1.15,2013-09-11 01:47:00,
2013-09-10 21:52:00,74.5,73.3,30.11,ESE,117,0.0,0.0,96,0.00,,,0.00,0,Wunderground v.1.15,2013-09-11 01:52:00,
2013-09-10 21:57:00,74.3,73.1,30.11,ESE,117,0.0,0.0,96,0.00,,,0.00,0,Wunderground v.1.15,2013-09-11 01:57:00,
2013-09-10 22:02:00,74.3,73.1,30.12,ESE,117,0.0,0.0,96,0.00,,,0.00,0,Wunderground v.1.15,2013-09-11 02:02:00,
2013-09-10 22:08:00,74.2,73.0,30.12,ESE,117,0.0,0.0,96,0.00,,,0.00,0,Wunderground v.1.15,2013-09-11 02:08:00,
2013-09-10 22:13:00,74.1,72.9,30.11,ESE,117,0.0,0.0,96,0.00,,,0.00,0,Wunderground v.1.15,2013-09-11 02:13:00,
2013-09-10 22:19:00,73.9,72.7,30.11,ESE,117,0.0,0.0,96,0.00,,,0.00,0,Wunderground v.1.15,2013-09-11 02:19:00,
2013-09-10 22:24:00,73.9,72.7,30.12,ESE,117,0.0,0.0,96,0.00,,,0.00,0,Wunderground v.1.15,2013-09-11 02:24:00,
2013-09-10 22:29:00,73.8,72.6,30.12,ESE,117,0.0,0.0,96,0.00,,,0.00,0,Wunderground v.1.15,2013-09-11 02:29:00,
2013-09-10 22:35:00,73.7,72.5,30.12,ESE,117,0.0,0.0,96,0.00,,,0.00,0,Wunderground v.1.15,2013-09-11 02:35:00,
2013-09-10 22:40:00,73.6,72.4,30.12,ESE,117,0.0,0.0,96,0.00,,,0.00,0,Wunderground v.1.15,2013-09-11 02:40:00,
2013-09-10 22:45:00,73.5,72.3,30.12,ESE,117,0.0,0.0,96,0.00,,,0.00,0,Wunderground v.1.15,2013-09-11 02:45:00,
2013-09-10 22:50:00,73.4,72.2,30.12,ESE,117,0.0,0.0,96,0.00,,,0.00,0,Wunderground v.1.15,2013-09-11 02:50:00,
2013-09-10 22:55:00,73.4,72.2,30.12,ESE,117,0.0,0.0,96,0.00,,,0.00,0,Wunderground v.1.15,2013-09-11 02:55:00,
2013-09-10 23:01:00,73.2,72.0,30.12,North,-999,0.0,0.0,96,0.00,,,-99.99,0,WeatherLink 6.0.3,2013-09-11 03:01:00,
2013-09-10 23:06:00,73.1,72.2,30.12,ESE,117,0.0,0.0,97,0.00,,,0.00,0,Wunderground v.1.15,2013-09-11 03:06:00,
2013-09-10 23:12:00,73.1,72.2,30.12,ESE,117,0.0,0.0,97,0.00,,,0.00,0,Wunderground v.1.15,2013-09-11 03:12:00,
2013-09-10 23:17:00,73.1,72.2,30.12,ESE,117,0.0,0.0,97,0.00,,,0.00,0,Wunderground v.1.15,2013-09-11 03:17:00,
2013-09-10 23:22:00,73.1,72.2,30.13,ESE,117,0.0,0.0,97,0.00,,,0.00,0,Wunderground v.1.15,2013-09-11 03:22:00,
2013-09-10 23:27:00,73.0,72.1,30.13,ESE,117,0.0,0.0,97,0.00,,,0.00,0,Wunderground v.1.15,2013-09-11 03:27:00,
2013-09-10 23:32:00,72.9,72.0,30.13,ESE,117,0.0,0.0,97,0.00,,,0.00,0,Wunderground v.1.15,2013-09-11 03:32:00,
2013-09-10 23:38:00,72.8,71.9,30.13,ESE,117,0.0,0.0,97,0.00,,,0.00,0,Wunderground v.1.15,2013-09-11 03:38:00,
2013-09-10 23:43:00,72.8,71.9,30.13,ESE,117,0.0,0.0,97,0.00,,,0.00,0,Wunderground v.1.15,2013-09-11 03:43:00,
2013-09-10 23:48:00,72.8,71.9,30.13,ESE,117,0.0,0.0,97,0.00,,,0.00,0,Wunderground v.1.15,2013-09-11 03:48:00,
2013-09-10 23:54:00,72.8,71.9,30.13,ESE,117,0.0,0.0,97,0.00,,,0.00,0,Wunderground v.1.15,2013-09-11 03:54:00,
2013-09-10 23:59:00,72.7,71.8,30.12,ESE,117,0.0,0.0,97,0.00,,,0.00,0,Wunderground v.1.15,2013-09-11 03:59:00,